Location: Podia
(1.5569°N, 32.3469°E)
Time: 16:47:28
(UTC+00:00)

Cosmos 1515 - Pass Details

Date: 01 June 2020
Orbit: 505 x 517 km, 82.5° (Epoch: 04 July)

Event Time Altitude Azimuth Distance (km) Brightness Sun altitude
Exits shadow 17:09:06 42° 102° (ESE) 737 4.0 -18.0°
Maximum altitude 17:09:16 43° 94° (E) 733 4.0 -18.0°
Drops below altitude 10° 17:12:53 10° 22° (NNE) 1,732 6.4 -18.8°
Sets 17:15:04 0° 15° (NNE) 2,614 7.4 -19.3°
